{"data":{"norad_id":58154,"epoch":"2026-09-20T14:22:18.403104Z","epoch_age_seconds":131832,"freshness":"FRESH","line1":"1 58154U 23166E   26263.59882411 -.00000756  00000+0 -11260-4 0  9991","line2":"2 58154  53.1605  33.1457 0001199  89.6343 270.4797 15.34391635162882","mean_motion":15.34391635,"eccentricity":0.0001199,"inclination_deg":53.1605,"raan_deg":33.1457,"arg_perigee_deg":89.6343,"mean_anomaly_deg":270.4797,"bstar":-1.126e-5,"rev_number":16288,"period_min":93.848269708535,"perigee_km":461.90788313707,"apogee_km":463.54832258873,"semimajor_km":6840.8651028629,"source":"CELESTRAK","updated_at":"2026-09-21T09:00:33.796208Z"}}